Location: ????
(30.2663°N, 31.2484°E)
Time: 17:14:25
(UTC+00:00)

CZ-2C R/B - Pass Details

Date: 24 March 2023
Orbit: 784 x 869 km, 98.3° (Epoch: 04 June)

Event Time Altitude Azimuth Distance (km) Brightness Sun altitude
Exits shadow 02:55:38 14° 292° (WNW) 2,261 4.4 -13.5°
Drops below altitude 10° 02:56:55 10° 304° (NW) 2,512 4.7 -13.2°
Sets 03:00:15 0° 325° (NW) 3,447 5.6 -12.5°
